Location: Little Italy
(37.8008°N, 122.4108°W)
Time: 21:43:18
(UTC+00:00)

CZ-4B R/B - Pass Details

Date: 29 October 2020
Orbit: 496 x 647 km, 97.8° (Epoch: 24 November)

Event Time Altitude Azimuth Distance (km) Brightness Sun altitude
Rises 12:55:37 0° 12° (NNE) 2,834 7.6 -19.7°
Reaches altitude 10° 12:57:50 10° 13° (NNE) 1,904 6.7 -19.2°
Maximum altitude 13:01:58 87° 103° (ESE) 567 3.8 -18.4°
Drops below altitude 10° 13:05:51 10° 192° (SSW) 1,798 6.4 -17.7°
Sets 13:07:54 0° 193° (SSW) 2,662 7.2 -17.2°
